Weather reports worldwide

Advertisment
Lugo/Rozas, Spain (8008): temperature & dewpoint: 16.06.2018 15:00:00 - 22.06.2018 15:00:00 (CEST)Lugo/Rozas, Spain (8008): wind speed: 16.06.2018 15:00:00 - 22.06.2018 15:00:00 (CEST)Lugo/Rozas, Spain (8008): wind direction: 16.06.2018 15:00:00 - 22.06.2018 15:00:00 (CEST)Lugo/Rozas, Spain (8008): reduced air pressure: 16.06.2018 15:00:00 - 22.06.2018 15:00:00 (CEST)Lugo/Rozas, Spain (8008): visibility: 16.06.2018 15:00:00 - 22.06.2018 15:00:00 (CEST)Lugo/Rozas, Spain (8008): precipitation: 16.06.2018 15:00:00 - 22.06.2018 15:00:00 (CEST)
Date & Time tt [°C] td [°C] ff [km/h] ff [kn] dd ppp [hPa] vv [km] rr [mm]
22.06.2018 15:00:00 - - - - - - - -
22.06.2018 14:00:00 19,0 16,8 9 5 NE 1020,8 15 -
22.06.2018 13:00:00 18,0 16,2 5 3 NE 1021,3 20 0,0
22.06.2018 12:00:00 17,2 15,5 8 4 NE 1021,3 20 0,0
22.06.2018 11:00:00 17,3 15,8 4 2 NE 1021,3 15 -
22.06.2018 10:00:00 16,2 15,2 5 3 NE 1021,4 20 0,0
22.06.2018 09:00:00 15,8 15,2 8 4 NE 1021,1 14 0,0
22.06.2018 08:00:00 15,8 15,3 5 3 NE 1020,7 8 -
22.06.2018 07:00:00 15,5 14,9 5 3 NE 1020,3 20 0,0
22.06.2018 06:00:00 15,6 15,0 9 5 NE 1020,4 20 0,0
22.06.2018 05:00:00 15,6 15,0 13 7 ENE 1020,1 20 -
22.06.2018 04:00:00 15,7 15,1 8 4 ENE 1021,2 20 0,0
22.06.2018 03:00:00 15,7 15,1 8 4 ENE 1022,2 20 0,0
22.06.2018 02:00:00 16,0 15,2 9 5 NE 1022,7 20 -
22.06.2018 01:00:00 16,0 15,0 9 5 ENE 1022,6 20 0,0
22.06.2018 00:00:00 16,1 15,1 11 6 ENE 1022,3 20 0,0
21.06.2018 23:00:00 16,2 15,2 15 8 NE 1021,4 20 -
21.06.2018 22:00:00 16,4 15,3 13 7 ENE 1021,4 20 0,0
21.06.2018 21:00:00 16,7 15,4 13 7 NE 1021,1 20 0,0
21.06.2018 20:00:00 17,4 15,7 9 5 NE 1020,8 20 -
21.06.2018 19:00:00 18,1 15,9 15 8 NE 1020,7 20 0,0
21.06.2018 18:00:00 18,7 16,1 8 4 NE 1020,6 20 0,0
21.06.2018 17:00:00 19,8 16,6 13 7 NE 1020,4 20 -
21.06.2018 16:00:00 21,3 17,1 9 5 NE 1020,1 20 0,0
21.06.2018 15:00:00 20,8 17,2 9 5 NE 1020,5 20 0,0
21.06.2018 14:00:00 21,4 17,2 9 5 NE 1020,3 20 -
21.06.2018 13:00:00 22,6 17,5 13 7 NE 1020,0 20 0,0
21.06.2018 12:00:00 21,6 17,4 8 4 NE 1020,2 20 0,0
21.06.2018 11:00:00 18,5 16,3 13 7 NE 1020,7 20 -
21.06.2018 10:00:00 17,4 15,9 9 5 NE 1021,1 20 0,0
21.06.2018 09:00:00 16,6 15,6 13 7 NE 1020,5 20 0,0
21.06.2018 08:00:00 16,5 15,7 11 6 NE 1020,2 15 -
21.06.2018 07:00:00 16,2 15,4 8 4 NE 1020,1 20 0,0
21.06.2018 06:00:00 16,2 15,4 8 4 ENE 1019,9 20 0,0
21.06.2018 05:00:00 16,1 15,3 11 6 ENE 1019,7 20 -
21.06.2018 04:00:00 16,5 15,4 5 3 NE 1019,9 20 0,0
21.06.2018 03:00:00 16,6 15,5 5 3 ENE 1020,4 20 0,0
21.06.2018 02:00:00 16,6 15,5 4 2 NNE 1020,9 20 -
21.06.2018 01:00:00 16,9 15,8 4 2 NE 1020,7 20 0,0
21.06.2018 00:00:00 17,3 15,8 2 1 NNE 1020,9 20 0,0
20.06.2018 23:00:00 17,5 16,0 4 2 NNE 1020,1 20 -
20.06.2018 22:00:00 18,0 16,3 4 2 N 1019,4 20 0,0
20.06.2018 21:00:00 18,6 16,4 4 2 NE 1018,8 20 0,0
20.06.2018 20:00:00 19,7 16,9 4 2 NNE 1018,7 20 -
20.06.2018 19:00:00 22,1 17,7 4 2 NNE 1017,4 20 0,0
20.06.2018 18:00:00 23,5 18,4 5 3 NE 1016,9 20 0,0
20.06.2018 17:00:00 26,7 18,6 8 4 NE 1016,2 20 -
20.06.2018 16:00:00 27,2 19,5 5 3 NNE 1015,9 20 0,0
20.06.2018 15:00:00 26,6 18,7 5 3 NNE 1016,3 20 0,0
20.06.2018 14:00:00 25,5 19,4 5 3 NE 1016,8 25 -
20.06.2018 13:00:00 23,7 18,6 5 3 ENE 1017,6 20 0,0
20.06.2018 12:00:00 21,5 17,3 4 2 NNW 1018,1 20 0,0
20.06.2018 11:00:00 17,9 16,1 4 2 E 1018,9 20 -
20.06.2018 10:00:00 15,9 14,9 2 1 E 1019,3 19 0,0
20.06.2018 09:00:00 15,2 14,4 4 2 E 1019,2 8 0,0
20.06.2018 08:00:00 15,2 14,4 4 2 ENE 1019,1 0,4 -
20.06.2018 07:00:00 15,2 14,6 2 1 E 1019,0 - 0,0
20.06.2018 06:00:00 15,2 14,4 2 1 NE 1018,8 15 0,0
20.06.2018 05:00:00 15,3 14,5 2 1 N 1018,8 19 -
20.06.2018 04:00:00 15,4 14,6 5 3 ENE 1018,9 20 0,0
20.06.2018 03:00:00 15,6 14,6 4 2 NE 1019,1 20 0,0
20.06.2018 02:00:00 15,8 14,8 8 4 ENE 1019,3 20 -
20.06.2018 01:00:00 16,0 14,9 4 2 NE 1019,3 20 0,0
20.06.2018 00:00:00 16,3 14,7 4 2 NE 1019,5 20 0,0
19.06.2018 23:00:00 16,5 14,9 5 3 NE 1019,2 20 -
19.06.2018 22:00:00 16,8 15,0 4 2 NNE 1018,8 20 0,0
19.06.2018 21:00:00 17,3 14,9 9 5 NE 1018,9 20 0,0
19.06.2018 20:00:00 18,7 15,4 9 5 NE 1018,7 20 -
19.06.2018 19:00:00 20,5 16,1 9 5 NE 1018,3 20 0,0
19.06.2018 18:00:00 21,6 16,5 9 5 NE 1018,4 20 0,0
19.06.2018 17:00:00 22,1 16,6 8 4 NE 1018,6 20 -
19.06.2018 16:00:00 21,8 17,2 9 5 NE 1019,1 20 0,0
19.06.2018 15:00:00 21,1 16,1 11 6 NE 1019,6 20 0,0
19.06.2018 14:00:00 21,0 16,2 9 5 NE 1020,1 25 -
19.06.2018 13:00:00 20,9 16,1 9 5 NE 1020,5 20 0,0
19.06.2018 12:00:00 20,5 15,5 9 5 NE 1020,9 20 0,0
19.06.2018 11:00:00 19,0 14,5 13 7 NE 1021,4 25 -
19.06.2018 10:00:00 18,1 14,8 8 4 NE 1021,7 19 0,0
19.06.2018 09:00:00 16,1 13,9 5 3 NE 1022,4 20 0,0
19.06.2018 08:00:00 14,4 13,3 9 5 ENE 1022,5 20 -
19.06.2018 07:00:00 14,3 13,2 11 6 ENE 1022,9 18 0,0
19.06.2018 06:00:00 14,4 13,3 9 5 ENE 1023,0 14 0,0
19.06.2018 05:00:00 14,0 13,0 8 4 ENE 1023,3 9 -
19.06.2018 04:00:00 14,2 13,2 8 4 ENE 1023,7 10 0,0
19.06.2018 03:00:00 14,2 13,2 5 3 ENE 1023,9 13 0,0
19.06.2018 02:00:00 14,0 13,0 8 4 NE 1024,4 16 -
19.06.2018 01:00:00 14,0 12,9 5 3 NE 1024,9 20 0,0
19.06.2018 00:00:00 14,3 13,2 8 4 NE 1025,2 20 0,0
18.06.2018 23:00:00 14,7 13,2 11 6 NE 1025,1 20 -
18.06.2018 22:00:00 15,5 13,5 15 8 ENE 1024,8 20 0,0
18.06.2018 21:00:00 16,6 14,1 11 6 NE 1024,4 20 0,0
18.06.2018 20:00:00 17,6 14,5 13 7 NE 1024,2 20 -
18.06.2018 19:00:00 18,9 14,8 15 8 NE 1024,3 20 0,0
18.06.2018 18:00:00 21,2 15,7 9 5 NE 1024,3 20 0,0
18.06.2018 17:00:00 21,5 15,3 16 9 NE 1024,6 20 -
18.06.2018 16:00:00 22,1 16,1 15 8 NE 1024,7 20 0,0
18.06.2018 15:00:00 22,8 17,0 9 5 NE 1024,4 20 0,0
18.06.2018 14:00:00 22,3 17,0 9 5 NE 1024,8 25 -
18.06.2018 13:00:00 21,4 16,1 11 6 NE 1025,4 20 0,0
18.06.2018 12:00:00 20,3 16,1 9 5 NE 1025,7 20 0,0
18.06.2018 11:00:00 18,1 14,4 13 7 ENE 1026,6 25 -
18.06.2018 10:00:00 15,9 13,9 13 7 ENE 1027,3 20 0,0
18.06.2018 09:00:00 14,8 13,7 9 5 NE 1027,2 20 0,0
18.06.2018 08:00:00 14,2 13,4 8 4 NE 1027,0 20 -
18.06.2018 07:00:00 13,7 13,1 5 3 ENE 1026,9 20 0,0
18.06.2018 06:00:00 13,2 12,6 5 3 ENE 1026,9 19 0,0
18.06.2018 05:00:00 13,1 12,6 8 4 ENE 1027,1 11 -
18.06.2018 04:00:00 12,5 11,9 4 2 NE 1027,3 20 0,0
18.06.2018 03:00:00 11,7 9,9 0 0 N 1027,4 20 0,0
18.06.2018 02:00:00 12,0 10,6 2 1 NNE 1027,3 20 -
18.06.2018 01:00:00 13,1 11,0 2 1 NNE 1027,3 20 0,0
18.06.2018 00:00:00 14,3 11,1 2 1 W 1027,2 20 0,0
17.06.2018 23:00:00 15,3 10,7 2 1 E 1027,0 20 -
17.06.2018 22:00:00 17,0 10,4 4 2 ENE 1026,3 20 0,0
17.06.2018 21:00:00 18,8 8,7 9 5 NE 1025,8 20 0,0
17.06.2018 20:00:00 20,7 8,3 11 6 ENE 1024,8 20 -
17.06.2018 19:00:00 22,7 10,2 13 7 ENE 1024,1 20 0,0
17.06.2018 18:00:00 25,3 13,2 8 4 NE 1023,2 20 0,0
17.06.2018 17:00:00 26,2 13,3 8 4 N 1022,8 20 -
17.06.2018 16:00:00 25,6 12,1 5 3 NNE 1023,1 20 0,0
17.06.2018 15:00:00 24,7 10,6 8 4 N 1023,5 20 0,0
17.06.2018 14:00:00 23,7 5,6 8 4 NE 1023,8 20 -
17.06.2018 13:00:00 22,5 11,6 4 2 N 1024,0 20 0,0
17.06.2018 12:00:00 20,6 12,8 8 4 NE 1024,3 20 0,0
17.06.2018 11:00:00 18,5 11,8 5 3 ENE 1024,8 20 -
17.06.2018 10:00:00 16,8 11,1 8 4 ENE 1025,2 20 0,0
17.06.2018 09:00:00 15,3 10,9 9 5 ENE 1025,1 20 0,0
17.06.2018 08:00:00 13,1 10,6 8 4 ENE 1025,1 20 -
17.06.2018 07:00:00 13,1 10,8 5 3 NE 1024,6 20 0,0
17.06.2018 06:00:00 13,3 11,5 4 2 NE 1024,2 20 0,0
17.06.2018 05:00:00 13,4 11,8 4 2 NNE 1024,1 20 -
17.06.2018 04:00:00 13,4 11,8 8 4 ENE 1024,0 20 0,0
17.06.2018 03:00:00 13,7 12,3 4 2 NE 1024,1 20 0,0
17.06.2018 02:00:00 13,8 12,2 5 3 NNE 1024,0 19 -
17.06.2018 01:00:00 13,8 12,2 8 4 ENE 1024,0 10 0,0
17.06.2018 00:00:00 13,9 12,3 5 3 NE 1023,8 16 0,0
16.06.2018 23:00:00 14,0 12,4 9 5 NE 1023,4 20 -
16.06.2018 22:00:00 14,0 12,4 11 6 NE 1023,0 20 0,0
16.06.2018 21:00:00 15,2 12,3 13 7 ENE 1022,5 20 0,0
16.06.2018 20:00:00 16,8 12,9 13 7 NE 1021,7 20 -
16.06.2018 19:00:00 19,5 13,7 11 6 NE 1020,4 20 0,0
16.06.2018 18:00:00 21,2 14,8 5 3 NNE 1019,9 20 0,0
16.06.2018 17:00:00 23,0 15,6 5 3 NE 1019,1 20 -
16.06.2018 16:00:00 23,1 14,1 11 6 NE 1018,9 20 0,0
16.06.2018 15:00:00 23,5 14,5 5 3 NNE 1019,1 20 0,0

tt = temperature
td = dewpoint
ff = wind speed
dd = wind direction
ppp = reduced air pressure
vv = visibility
rr = precipitation

Next stations